User: anonymous   Login
Location: Unspecified
(0.0000°N, 0.0000°E)
Time: 03:23:42
(UTC+02:00)
Language:

Cosmos 1125 Rocket - Orbit

View from above orbital plane
View from above orbital plane
View from above satellite
View from above satellite

Ground track
Ground track

The orbit data is extracted from the following two-line orbital elements,

1 11511U 79078B   15091.22444268  .00000371  00000-0  13486-3 0  9994
2 11511 074.0394 000.1668 0014598 081.6161 278.6646 14.36590140862591
Epoch (UTC): 01 April 2015 05:23:11
Eccentricity: 0.0014598
inclination: 74.0394°
perigee height: 759 km
apogee height: 780 km
right ascension of ascending node: 0.1668°
argument of perigee: 81.6161°
revolutions per day: 14.36590140
mean anomaly at epoch: 278.6646°
orbit number at epoch: 86259

The dashed part of the orbit path shows where the satellite is in the earth's shadow,  

DLR